Location: Miss�
(46.9484°N, 0.1922°W)
Time: 19:35:56
(UTC+00:00)

Resurs 01 Rocket - Pass Details

Date: 02 March 2021
Orbit: 635 x 643 km, 98.0° (Epoch: 14 April)

Event Time Altitude Azimuth Distance (km) Brightness Sun altitude
Exits shadow 20:26:56 33° 358° (N) 1,071 2.9 -27.5°
Drops below altitude 10° 20:29:27 10° 351° (N) 2,034 4.5 -27.9°
Sets 20:31:40 0° 349° (N) 2,948 5.5 -28.3°
